Location: Risskov
(56.1972°N, 10.2480°E)
Time: 13:06:29
(UTC+00:00)

Cosmos 1340 - Pass Details

Date: 05 July 2020
Orbit: 502 x 504 km, 81.2° (Epoch: 07 August)

Event Time Altitude Azimuth Distance (km) Brightness Sun altitude
Exits shadow 23:34:20 15° 203° (SSW) 1,410 4.3 -11.1°
Maximum altitude 23:37:21 71° 286° (WNW) 538 2.8 -11.1°
Drops below altitude 10° 23:41:08 10° 11° (NNE) 1,728 6.9 -11.1°
Sets 23:43:17 0° 14° (NNE) 2,618 8.3 -11.0°
